This demonstration page uses our WeatherBlox Daily Observations layout. Learn more.

Left ArrowRight Arrow

Hourly Observations for March 23, 2022

Temp ( °F °C ) Dew Point ( °F °C ) Humidity (%) Winds ( mph kmh ) Pressure ( in mb ) Visibility ( mi km ) Precip ( " mm )
12:56 am 00:56 Clear 38 3.3 18 -7.8 44 44 NNW 17 28 29.94 1014 10 16 0.00 0.00
1:56 am 01:56 Clear 36 2.2 18 -7.8 48 48 NNW 15 24 29.93 1014 10 16 0.00 0.00
2:56 am 02:56 Clear 34 1.1 18 -7.8 52 52 NNW 15 24 29.92 1013 10 16 0.00 0.00
3:56 am 03:56 Clear 33 0.6 20 -6.7 58 58 N 24 39 29.90 1013 10 16 0.00 0.00
4:56 am 04:56 Clear 31 -0.6 22 -5.6 69 69 NNW 16 26 29.90 1013 10 16 0.00 0.00
5:56 am 05:56 Clear 30 -1.1 23 -5 75 75 NNW 18 30 29.91 1013 10 16 0.00 0.00
6:56 am 06:56 Cloudy 31 -0.6 22 -5.6 69 69 NNW 22 35 29.91 1013 10 16 0.00 0.00
7:56 am 07:56 Cloudy 31 -0.6 24 -4.4 76 76 NNW 24 39 29.91 1013 10 16 0.00 0.00
8:17 am 08:17 Cloudy with Light Wintry Mix 32 0 25 -4 75 75 N 28 44 29.98 1015 10 16 0.00 0.00
8:56 am 08:56 Cloudy with Light Wintry Mix 32 0 25 -3.9 75 75 NNW 24 39 29.93 1014 10 16 0.00 0.00
9:56 am 09:56 Cloudy 34 1.1 24 -4.4 67 67 N 26 43 29.94 1014 10 16 0.00 0.00
10:25 am 10:25 Cloudy 34 1 25 -4 70 70 N 24 39 30.00 1016 10 16 0.00 0.00
10:56 am 10:56 Cloudy 34 1.1 23 -5 64 64 NNW 31 50 29.95 1014 10 16 0.00 0.00
11:17 am 11:17 Cloudy 36 2 21 -6 56 56 N 30 48 29.99 1016 10 16 0.00 0.00
11:56 am 11:56 Cloudy 35 1.7 23 -5 61 61 N 31 50 29.96 1015 10 16 0.00 0.00
12:56 pm 12:56 Cloudy 36 2.2 22 -5.6 57 57 NNW 28 44 29.96 1015 10 16 0.00 0.00
1:56 pm 13:56 Cloudy 39 3.9 22 -5.6 50 50 N 31 50 29.96 1014 10 16 0.00 0.00
2:56 pm 14:56 Partly Cloudy 40 4.4 22 -5.6 49 49 N 29 46 29.93 1014 10 16 0.00 0.00
3:56 pm 15:56 Sunny 44 6.7 21 -6.1 40 40 NNW 33 54 29.90 1012 10 16 0.00 0.00
4:56 pm 16:56 Sunny 47 8.3 22 -5.6 37 37 N 29 46 29.90 1012 10 16 0.00 0.00
5:56 pm 17:56 Sunny 45 7.2 21 -6.1 39 39 N 26 43 29.90 1013 10 16 0.00 0.00
6:56 pm 18:56 Sunny 42 5.6 22 -5.6 45 45 N 23 37 29.93 1013 10 16 0.00 0.00
7:56 pm 19:56 Clear 40 4.4 22 -5.6 49 49 N 15 24 29.93 1014 10 16 0.00 0.00
8:56 pm 20:56 Clear 37 2.8 22 -5.6 54 54 N 9 15 29.94 1014 10 16 0.00 0.00
9:56 pm 21:56 Clear 31 -0.6 21 -6.1 67 67 NW 8 13 29.95 1014 10 16 0.00 0.00
10:56 pm 22:56 Clear 34 1.1 20 -6.7 56 56 NNW 8 13 29.95 1014 10 16 0.00 0.00
11:56 pm 23:56 Clear 34 1.1 20 -6.7 56 56 NNW 8 13 29.96 1014 10 16 0.00 0.00

Powered by AerisWeather